| time (UTC) | temp F | wind direction | speed knots | gust knots | rain 1hr in | rain 24hr in | rain mn in | humidity % | barometer mb |
| 20260505014740 | 59 | 64 | 0.9 | 5.2 | 0.00 | 0.00 | 0.00 | 97 | 916.0 |
| 20260505014738 | 59 | 66 | 0.9 | 5.2 | 0.00 | 0.00 | 0.00 | 97 | 916.0 |
| 20260505014237 | 59 | 52 | 3.5 | 6.1 | 0.01 | 0.01 | 0.00 | 97 | 916.0 |
| 20260505014138 | 59 | 41 | 3.5 | 6.1 | 0.01 | 0.01 | 0.00 | 97 | 916.0 |
| 20260505013538 | 59 | 90 | 4.3 | 6.1 | 0.01 | 0.01 | 0.00 | 97 | 916.0 |
| 20260505012938 | 59 | 57 | 4.3 | 5.2 | 0.00 | 0.00 | 0.00 | 97 | 916.0 |
| 20260505012338 | 59 | 53 | 4.3 | 8.7 | 0.01 | 0.01 | 0.00 | 97 | 916.0 |
| 20260505012237 | 59 | 67 | 4.3 | 8.7 | 0.01 | 0.01 | 0.00 | 97 | 916.0 |
| 20260505011739 | 59 | 76 | 7.0 | 8.7 | 0.00 | 0.00 | 0.00 | 97 | 916.0 |
| 20260505011737 | 59 | 77 | 7.0 | 8.7 | 0.00 | 0.00 | 0.00 | 97 | 916.0 |
| 20260505011237 | 59 | 78 | 2.6 | 7.8 | 0.00 | 0.00 | 0.00 | 97 | 916.0 |
| 20260505010737 | 59 | 70 | 7.8 | 10.4 | 0.00 | 0.00 | 0.00 | 97 | 916.0 |
| 20260505010539 | 59 | 25 | 0.0 | 0.0 | 0.00 | 0.00 | 0.00 | 97 | 915.9 |
| 20260505010237 | 59 | 91 | 0.0 | 7.0 | 0.00 | 0.00 | 0.00 | 97 | 915.9 |
| 20260505005938 | 59 | 69 | 0.9 | 7.8 | 0.00 | 0.00 | 0.00 | 97 | 915.8 |
| 20260505005737 | 59 | 79 | 7.0 | 9.6 | 0.01 | 0.01 | 0.00 | 97 | 915.7 |
| 20260505005338 | 59 | 85 | 7.8 | 9.6 | 0.00 | 0.00 | 0.00 | 97 | 915.8 |
| 20260505005237 | 59 | 80 | 7.0 | 9.6 | 0.00 | 0.00 | 0.00 | 97 | 915.7 |
| 20260505004738 | 59 | 57 | 7.0 | 9.6 | 0.01 | 0.01 | 0.00 | 97 | 915.7 |
| 20260505004736 | 59 | 58 | 7.0 | 9.6 | 0.01 | 0.01 | 0.00 | 97 | 915.7 |
| 20260505004237 | 59 | 73 | 7.8 | 9.6 | 0.01 | 0.01 | 0.00 | 97 | 915.7 |
| 20260505004138 | 59 | 85 | 3.5 | 9.6 | 0.00 | 0.00 | 0.00 | 97 | 915.6 |
| 20260505003736 | 59 | 59 | 7.8 | 12.2 | 0.01 | 0.01 | 0.00 | 97 | 915.6 |
| 20260505003538 | 59 | 75 | 8.7 | 10.4 | 0.01 | 0.01 | 0.00 | 97 | 915.6 |
| 20260505003237 | 59 | 62 | 5.2 | 10.4 | 0.00 | 0.00 | 0.00 | 97 | 915.5 |
| 20260505002938 | 59 | 58 | 0.0 | 8.7 | 0.00 | 0.00 | 0.00 | 97 | 915.4 |
| 20260505002736 | 59 | 71 | 7.8 | 9.6 | 0.01 | 0.01 | 0.00 | 97 | 915.5 |
| 20260505002338 | 59 | 87 | 7.8 | 10.4 | 0.03 | 0.03 | 0.00 | 97 | 915.4 |
| 20260505002236 | 59 | 70 | 7.8 | 10.4 | 0.03 | 0.03 | 0.00 | 97 | 915.4 |
| 20260505001738 | 59 | 79 | 7.0 | 10.4 | 0.02 | 0.02 | 0.00 | 97 | 915.4 |
| 20260505001736 | 59 | 72 | 7.0 | 10.4 | 0.02 | 0.02 | 0.00 | 97 | 915.4 |
| 20260505001236 | 59 | 66 | 4.3 | 7.0 | 0.00 | 0.00 | 0.00 | 97 | 915.4 |
| 20260505001138 | 59 | 77 | 0.9 | 7.0 | 0.00 | 0.00 | 0.00 | 97 | 915.4 |
| 20260505000736 | 59 | 60 | 7.0 | 8.7 | 0.00 | 0.00 | 0.00 | 97 | 915.3 |
| 20260505000538 | 59 | 83 | 7.0 | 8.7 | 0.00 | 0.00 | 0.00 | 97 | 915.3 |
| 20260504235938 | 59 | 66 | 5.2 | 7.0 | 0.00 | 0.00 | 0.00 | 97 | 915.3 |
| 20260504235736 | 59 | 79 | 5.2 | 7.0 | 0.00 | 0.00 | 0.00 | 97 | 915.4 |
| 20260504235337 | 59 | 60 | 0.0 | 5.2 | 0.00 | 0.00 | 0.00 | 97 | 915.3 |
| 20260504235237 | 59 | 63 | 6.1 | 9.6 | 0.00 | 0.00 | 0.00 | 97 | 915.3 |
| 20260504234738 | 59 | 75 | 7.0 | 8.7 | 0.00 | 0.00 | 0.00 | 97 | 915.1 |
| 20260504234736 | 59 | 72 | 7.0 | 8.7 | 0.00 | 0.00 | 0.00 | 97 | 915.1 |
| 20260504234237 | 59 | 63 | 3.5 | 9.6 | 0.00 | 0.00 | 0.00 | 97 | 915.1 |
| 20260504233736 | 59 | 80 | 7.0 | 10.4 | 0.00 | 0.00 | 0.00 | 97 | 915.1 |
| 20260504233537 | 59 | 50 | 7.8 | 10.4 | 0.00 | 0.00 | 0.00 | 97 | 915.1 |
| 20260504233236 | 59 | 75 | 8.7 | 10.4 | 0.00 | 0.00 | 0.00 | 97 | 915.1 |
| 20260504232937 | 59 | 58 | 7.0 | 10.4 | 0.00 | 0.00 | 0.00 | 97 | 915.0 |
| 20260504232736 | 59 | 54 | 7.0 | 10.4 | 0.00 | 0.00 | 0.00 | 97 | 915.0 |
| 20260504232337 | 59 | 46 | 4.3 | 9.6 | 0.00 | 0.00 | 0.00 | 97 | 915.0 |
| 20260504232236 | 59 | 66 | 0.0 | 8.7 | 0.00 | 0.00 | 0.00 | 97 | 915.0 |
| 20260504231738 | 59 | 85 | 8.7 | 9.6 | 0.01 | 0.01 | 0.00 | 97 | 914.9 |
| 20260504231736 | 59 | 66 | 8.7 | 9.6 | 0.01 | 0.01 | 0.00 | 97 | 914.9 |
| 20260504231236 | 59 | 72 | 7.0 | 9.6 | 0.01 | 0.01 | 0.00 | 97 | 914.9 |
| 20260504231137 | 59 | 69 | 7.0 | 10.4 | 0.01 | 0.01 | 0.00 | 97 | 914.9 |
| 20260504230736 | 59 | 58 | 7.8 | 10.4 | 0.01 | 0.01 | 0.00 | 97 | 915.0 |
| 20260504230537 | 59 | 64 | 7.0 | 10.4 | 0.00 | 0.00 | 0.00 | 97 | 915.0 |
| 20260504230236 | 59 | 67 | 3.5 | 10.4 | 0.00 | 0.00 | 0.00 | 97 | 915.0 |
| 20260504225937 | 59 | 53 | 7.0 | 9.6 | 0.00 | 0.00 | 0.00 | 97 | 914.9 |
| 20260504225736 | 59 | 78 | 7.0 | 9.6 | 0.00 | 0.00 | 0.00 | 97 | 914.9 |
| 20260504225337 | 59 | 87 | 7.0 | 9.6 | 0.00 | 0.00 | 0.00 | 97 | 915.0 |
| 20260504225237 | 59 | 58 | 6.1 | 7.8 | 0.00 | 0.00 | 0.00 | 97 | 915.0 |
| 20260504224737 | 59 | 71 | 6.1 | 7.8 | 0.00 | 0.00 | 0.00 | 97 | 915.0 |
| 20260504224236 | 58 | 68 | 6.1 | 7.8 | 0.00 | 0.00 | 0.00 | 97 | 915.0 |
| 20260504224137 | 58 | 70 | 6.1 | 7.8 | 0.00 | 0.00 | 0.00 | 97 | 915.0 |
| 20260504223736 | 58 | 76 | 3.5 | 7.8 | 0.00 | 0.00 | 0.00 | 97 | 914.9 |
| 20260504223537 | 58 | 66 | 7.8 | 9.6 | 0.01 | 0.01 | 0.00 | 97 | 914.9 |
| 20260504223236 | 58 | 74 | 7.8 | 9.6 | 0.01 | 0.01 | 0.00 | 97 | 914.8 |
| 20260504222937 | 58 | 77 | 7.8 | 9.6 | 0.00 | 0.00 | 0.00 | 97 | 914.8 |
| 20260504222736 | 58 | 87 | 7.0 | 9.6 | 0.00 | 0.00 | 0.00 | 97 | 914.7 |
| 20260504222337 | 58 | 69 | 5.2 | 9.6 | 0.00 | 0.00 | 0.00 | 97 | 914.7 |
| 20260504222236 | 58 | 76 | 0.9 | 9.6 | 0.00 | 0.00 | 0.00 | 97 | 914.7 |
| 20260504221737 | 58 | 74 | 8.7 | 12.2 | 0.05 | 0.05 | 0.00 | 97 | 914.7 |
| 20260504221735 | 58 | 79 | 8.7 | 12.2 | 0.05 | 0.05 | 0.00 | 97 | 914.7 |
| 20260504221235 | 58 | 72 | 8.7 | 14.8 | 0.03 | 0.03 | 0.00 | 97 | 914.7 |
| 20260504220735 | 58 | 70 | 11.3 | 14.8 | 0.02 | 0.02 | 0.00 | 97 | 914.6 |
| 20260504220537 | 58 | 54 | 11.3 | 14.8 | 0.02 | 0.02 | 0.00 | 97 | 914.5 |
| 20260504220235 | 58 | 83 | 10.4 | 13.9 | 0.01 | 0.01 | 0.00 | 97 | 914.6 |
| 20260504215937 | 58 | 77 | 8.7 | 13.9 | 0.01 | 0.01 | 0.00 | 97 | 914.7 |
| 20260504215735 | 58 | 45 | 8.7 | 13.9 | 0.01 | 0.01 | 0.00 | 97 | 914.7 |
| 20260504215336 | 58 | 43 | 8.7 | 12.2 | 0.00 | 0.00 | 0.00 | 97 | 914.7 |
| 20260504215236 | 58 | 77 | 7.8 | 11.3 | 0.00 | 0.00 | 0.00 | 97 | 914.8 |
| 20260504214735 | 58 | 65 | 8.7 | 10.4 | 0.00 | 0.00 | 0.00 | 97 | 914.8 |
| 20260504214235 | 58 | 52 | 7.8 | 13.9 | 0.00 | 0.00 | 0.00 | 97 | 914.8 |
| 20260504214136 | 58 | 68 | 7.8 | 13.9 | 0.00 | 0.00 | 0.00 | 97 | 914.7 |
| 20260504213735 | 58 | 76 | 8.7 | 13.9 | 0.00 | 0.00 | 0.00 | 97 | 914.6 |
| 20260504213536 | 58 | 73 | 9.6 | 13.9 | 0.00 | 0.00 | 0.00 | 97 | 914.6 |
| 20260504213235 | 58 | 74 | 10.4 | 13.0 | 0.00 | 0.00 | 0.00 | 97 | 914.5 |
| 20260504212936 | 58 | 85 | 10.4 | 13.0 | 0.00 | 0.00 | 0.00 | 97 | 914.4 |
| 20260504212735 | 58 | 79 | 3.5 | 13.0 | 0.00 | 0.00 | 0.00 | 97 | 914.4 |
| 20260504212336 | 58 | 81 | 12.2 | 17.4 | 0.00 | 0.00 | 0.00 | 97 | 914.3 |
| 20260504212236 | 58 | 70 | 13.0 | 17.4 | 0.00 | 0.00 | 0.00 | 97 | 914.3 |
| 20260504211737 | 58 | 85 | 12.2 | 16.5 | 0.00 | 0.00 | 0.00 | 97 | 914.2 |
| 20260504211735 | 58 | 43 | 12.2 | 16.5 | 0.00 | 0.00 | 0.00 | 97 | 914.3 |
| 20260504211235 | 58 | 92 | 12.2 | 16.5 | 0.00 | 0.00 | 0.00 | 97 | 914.2 |
| 20260504211136 | 58 | 93 | 11.3 | 16.5 | 0.00 | 0.00 | 0.00 | 97 | 914.3 |
| 20260504210735 | 58 | 71 | 12.2 | 16.5 | 0.00 | 0.00 | 0.00 | 97 | 914.3 |
| 20260504210235 | 58 | 63 | 10.4 | 13.0 | 0.00 | 0.00 | 0.00 | 97 | 914.3 |
| 20260504205936 | 59 | 75 | 10.4 | 13.0 | 0.00 | 0.00 | 0.00 | 97 | 914.4 |
| 20260504205735 | 59 | 85 | 10.4 | 13.0 | 0.00 | 0.00 | 0.00 | 97 | 914.4 |
| 20260504205336 | 59 | 67 | 8.7 | 13.0 | 0.00 | 0.00 | 0.00 | 97 | 914.5 |
| 20260504205235 | 59 | 51 | 8.7 | 13.0 | 0.00 | 0.00 | 0.00 | 97 | 914.5 |
| 20260504204736 | 59 | 79 | 8.7 | 13.0 | 0.00 | 0.00 | 0.00 | 97 | 914.5 |
| 20260504204235 | 59 | 64 | 8.7 | 13.0 | 0.00 | 0.00 | 0.00 | 97 | 914.5 |
| 20260504204136 | 59 | 75 | 9.6 | 13.0 | 0.00 | 0.00 | 0.00 | 97 | 914.5 |
| 20260504203734 | 59 | 81 | 10.4 | 14.8 | 0.00 | 0.00 | 0.00 | 97 | 914.5 |
| 20260504203536 | 59 | 42 | 10.4 | 14.8 | 0.00 | 0.00 | 0.00 | 97 | 914.4 |
| 20260504203234 | 59 | 52 | 9.6 | 14.8 | 0.00 | 0.00 | 0.00 | 97 | 914.5 |
| 20260504202936 | 59 | 60 | 11.3 | 15.6 | 0.00 | 0.00 | 0.00 | 97 | 914.5 |
| 20260504202734 | 59 | 68 | 11.3 | 15.6 | 0.00 | 0.00 | 0.00 | 97 | 914.5 |
| 20260504202336 | 59 | 63 | 11.3 | 15.6 | 0.00 | 0.00 | 0.00 | 97 | 914.5 |
| 20260504202234 | 59 | 81 | 12.2 | 15.6 | 0.00 | 0.00 | 0.00 | 97 | 914.5 |
| 20260504201736 | 59 | 68 | 13.0 | 17.4 | 0.00 | 0.00 | 0.00 | 97 | 914.4 |
| 20260504201734 | 59 | 78 | 13.0 | 17.4 | 0.00 | 0.00 | 0.00 | 97 | 914.3 |
| 20260504201235 | 59 | 76 | 13.9 | 18.2 | 0.00 | 0.00 | 0.00 | 97 | 914.3 |
| 20260504201136 | 59 | 72 | 12.2 | 18.2 | 0.00 | 0.00 | 0.00 | 97 | 914.2 |
| 20260504200734 | 59 | 71 | 14.8 | 18.2 | 0.00 | 0.00 | 0.00 | 97 | 914.2 |
| 20260504200536 | 59 | 84 | 13.0 | 20.0 | 0.00 | 0.00 | 0.00 | 97 | 914.1 |
| 20260504200234 | 59 | 75 | 13.9 | 20.0 | 0.00 | 0.00 | 0.00 | 97 | 914.1 |
| 20260504195936 | 59 | 73 | 13.9 | 20.0 | 0.00 | 0.00 | 0.00 | 97 | 914.1 |
| 20260504195734 | 59 | 72 | 14.8 | 20.0 | 0.00 | 0.00 | 0.00 | 97 | 914.0 |
| 20260504195336 | 59 | 83 | 12.2 | 17.4 | 0.00 | 0.00 | 0.00 | 97 | 914.0 |
| 20260504195234 | 59 | 70 | 12.2 | 15.6 | 0.00 | 0.00 | 0.00 | 97 | 914.2 |
| 20260504194736 | 59 | 38 | 12.2 | 15.6 | 0.00 | 0.00 | 0.00 | 97 | 914.2 |
| 20260504194734 | 59 | 55 | 12.2 | 15.6 | 0.00 | 0.00 | 0.00 | 97 | 914.2 |
| 20260504194234 | 59 | 78 | 11.3 | 15.6 | 0.00 | 0.00 | 0.00 | 97 | 914.3 |
| 20260504194136 | 59 | 78 | 12.2 | 15.6 | 0.00 | 0.00 | 0.00 | 97 | 914.3 |
| 20260504193734 | 59 | 73 | 13.0 | 16.5 | 0.00 | 0.00 | 0.00 | 97 | 914.3 |
| 20260504193538 | 59 | 65 | 13.0 | 16.5 | 0.00 | 0.00 | 0.00 | 97 | 914.2 |
| 20260504193234 | 59 | 55 | 12.2 | 16.5 | 0.00 | 0.00 | 0.00 | 97 | 914.3 |
| 20260504192935 | 59 | 66 | 11.3 | 17.4 | 0.00 | 0.00 | 0.00 | 97 | 914.3 |
| 20260504192734 | 59 | 45 | 11.3 | 17.4 | 0.00 | 0.00 | 0.00 | 97 | 914.4 |
| 20260504192335 | 59 | 55 | 13.0 | 17.4 | 0.00 | 0.00 | 0.00 | 97 | 914.3 |
| 20260504192234 | 59 | 61 | 13.9 | 17.4 | 0.00 | 0.00 | 0.00 | 97 | 914.3 |
| 20260504191736 | 59 | 59 | 13.0 | 17.4 | 0.00 | 0.00 | 0.00 | 97 | 914.2 |
| 20260504191734 | 59 | 63 | 13.0 | 17.4 | 0.00 | 0.00 | 0.00 | 97 | 914.2 |
| 20260504191234 | 59 | 73 | 13.9 | 15.6 | 0.00 | 0.00 | 0.00 | 97 | 914.3 |
| 20260504191135 | 59 | 45 | 13.9 | 15.6 | 0.00 | 0.00 | 0.00 | 97 | 914.3 |
| 20260504190734 | 59 | 68 | 13.0 | 18.2 | 0.00 | 0.00 | 0.00 | 97 | 914.3 |
| 20260504190535 | 59 | 86 | 14.8 | 18.2 | 0.00 | 0.00 | 0.00 | 97 | 914.2 |
| 20260504185936 | 59 | 62 | 15.6 | 20.0 | 0.00 | 0.00 | 0.00 | 97 | 914.3 |
| 20260504185335 | 60 | 76 | 15.6 | 20.9 | 0.00 | 0.00 | 0.00 | 97 | 914.2 |
| 20260504185234 | 60 | 75 | 14.8 | 20.9 | 0.00 | 0.00 | 0.00 | 97 | 914.3 |
| 20260504184736 | 60 | 80 | 13.9 | 20.9 | 0.00 | 0.00 | 0.00 | 97 | 914.4 |
| 20260504184734 | 60 | 79 | 13.9 | 20.9 | 0.00 | 0.00 | 0.00 | 97 | 914.4 |
| 20260504184234 | 60 | 71 | 15.6 | 20.9 | 0.00 | 0.00 | 0.00 | 97 | 914.4 |
| 20260504184135 | 60 | 69 | 15.6 | 20.0 | 0.00 | 0.00 | 0.00 | 97 | 914.4 |
| 20260504183734 | 60 | 73 | 14.8 | 20.9 | 0.00 | 0.00 | 0.00 | 97 | 914.3 |
| 20260504183535 | 60 | 55 | 16.5 | 20.9 | 0.00 | 0.00 | 0.00 | 97 | 914.4 |
| 20260504183233 | 60 | 67 | 15.6 | 20.9 | 0.00 | 0.00 | 0.00 | 97 | 914.4 |
| 20260504182935 | 60 | 90 | 17.4 | 20.9 | 0.00 | 0.00 | 0.00 | 97 | 914.5 |
| 20260504182733 | 60 | 80 | 16.5 | 21.7 | 0.00 | 0.00 | 0.00 | 97 | 914.6 |
| 20260504182335 | 60 | 83 | 17.4 | 21.7 | 0.00 | 0.00 | 0.00 | 97 | 914.3 |
| 20260504182233 | 60 | 83 | 16.5 | 22.6 | 0.00 | 0.00 | 0.00 | 97 | 914.4 |
| 20260504181736 | 60 | 82 | 18.2 | 22.6 | 0.00 | 0.00 | 0.00 | 97 | 914.2 |
| 20260504181734 | 60 | 74 | 18.2 | 22.6 | 0.00 | 0.00 | 0.00 | 97 | 914.2 |
| 20260504181233 | 60 | 72 | 18.2 | 22.6 | 0.00 | 0.00 | 0.00 | 97 | 914.6 |
| 20260504181135 | 60 | 77 | 19.1 | 22.6 | 0.00 | 0.00 | 0.00 | 97 | 914.4 |
| 20260504180734 | 60 | 85 | 17.4 | 22.6 | 0.00 | 0.00 | 0.00 | 97 | 914.8 |
| 20260504180535 | 60 | 86 | 17.4 | 21.7 | 0.00 | 0.00 | 0.00 | 97 | 914.7 |
| 20260504180233 | 60 | 79 | 15.6 | 21.7 | 0.00 | 0.00 | 0.00 | 97 | 914.8 |
| 20260504175935 | 60 | 67 | 16.5 | 21.7 | 0.00 | 0.00 | 0.00 | 97 | 915.1 |
| 20260504175733 | 60 | 73 | 15.6 | 20.9 | 0.00 | 0.00 | 0.00 | 97 | 915.0 |
| 20260504175335 | 60 | 89 | 14.8 | 18.2 | 0.00 | 0.00 | 0.00 | 97 | 915.0 |
| 20260504175233 | 60 | 71 | 14.8 | 18.2 | 0.00 | 0.00 | 0.00 | 97 | 915.2 |
| 20260504174735 | 60 | 78 | 13.0 | 19.1 | 0.00 | 0.00 | 0.00 | 97 | 915.3 |
| 20260504174733 | 60 | 77 | 13.0 | 19.1 | 0.00 | 0.00 | 0.00 | 97 | 915.4 |
| 20260504174233 | 60 | 71 | 13.0 | 19.1 | 0.00 | 0.00 | 0.00 | 97 | 915.4 |
| 20260504174135 | 60 | 78 | 13.9 | 20.0 | 0.00 | 0.00 | 0.00 | 97 | 915.4 |
| 20260504173733 | 60 | 65 | 12.2 | 24.3 | 0.00 | 0.00 | 0.00 | 97 | 915.4 |
| 20260504173534 | 60 | 62 | 13.0 | 24.3 | 0.00 | 0.00 | 0.00 | 97 | 915.3 |
| 20260504173233 | 60 | 70 | 15.6 | 24.3 | 0.00 | 0.00 | 0.00 | 97 | 915.4 |
| 20260504172935 | 60 | 66 | 15.6 | 20.9 | 0.00 | 0.00 | 0.00 | 97 | 915.1 |
| 20260504172733 | 60 | 65 | 14.8 | 20.9 | 0.00 | 0.00 | 0.00 | 97 | 915.2 |
| 20260504172334 | 60 | 61 | 16.5 | 20.9 | 0.00 | 0.00 | 0.00 | 97 | 915.3 |
| 20260504171735 | 60 | 86 | 15.6 | 18.2 | 0.00 | 0.00 | 0.00 | 97 | 915.4 |
| 20260504171134 | 60 | 77 | 15.6 | 20.9 | 0.00 | 0.00 | 0.00 | 97 | 915.5 |
| 20260504170534 | 60 | 63 | 14.8 | 20.0 | 0.00 | 0.00 | 0.00 | 97 | 915.6 |
| 20260504160232 | 60 | 81 | 18.2 | 23.5 | 0.00 | 0.00 | 0.00 | 97 | 915.7 |
| 20260504151133 | 61 | 60 | 18.2 | 22.6 | 0.00 | 0.00 | 0.00 | 97 | 916.2 |
| 20260504150732 | 61 | 96 | 15.6 | 20.0 | 0.00 | 0.00 | 0.00 | 97 | 916.1 |
| 20260504150533 | 61 | 75 | 4.3 | 20.0 | 0.00 | 0.00 | 0.00 | 97 | 916.2 |
| 20260504150232 | 61 | 67 | 13.0 | 23.5 | 0.00 | 0.00 | 0.00 | 97 | 916.1 |
| 20260504141133 | 62 | 68 | 20.0 | 25.2 | 0.00 | 0.00 | 0.00 | 97 | 915.8 |
| 20260504140732 | 62 | 73 | 19.1 | 27.8 | 0.00 | 0.00 | 0.00 | 97 | 915.9 |
| 20260504140533 | 62 | 46 | 19.1 | 27.8 | 0.00 | 0.00 | 0.00 | 97 | 915.8 |
| 20260504140232 | 62 | 77 | 17.4 | 24.3 | 0.00 | 0.00 | 0.00 | 97 | 915.6 |
| 20260504130731 | 62 | 67 | 18.2 | 24.3 | 0.00 | 0.00 | 0.00 | 97 | 916.0 |
| 20260504130532 | 62 | 65 | 15.6 | 19.1 | 0.00 | 0.00 | 0.00 | 97 | 916.0 |
| 20260504130231 | 62 | 85 | 3.5 | 16.5 | 0.00 | 0.00 | 0.00 | 97 | 916.0 |
| 20260504120231 | 62 | 95 | 1.7 | 17.4 | 0.00 | 0.00 | 0.00 | 97 | 915.0 |
| 20260504100531 | 63 | 84 | 14.8 | 18.2 | 0.00 | 0.00 | 0.00 | 97 | 915.2 |
| 20260504100230 | 63 | 71 | 13.0 | 19.1 | 0.00 | 0.00 | 0.00 | 97 | 915.3 |
| 20260504080229 | 61 | 70 | 0.0 | 8.7 | 0.00 | 0.00 | 0.00 | 97 | 915.8 |
| 20260504070228 | 61 | 74 | 0.0 | 10.4 | 0.00 | 0.00 | 0.00 | 96 | 916.4 |
| 20260504060229 | 64 | 85 | 3.5 | 9.6 | 0.00 | 0.00 | 0.00 | 89 | 916.8 |
| 20260504050727 | 64 | 80 | 8.7 | 13.9 | 0.00 | 0.00 | 0.00 | 87 | 917.0 |
| 20260504050529 | 64 | 104 | 9.6 | 13.9 | 0.00 | 0.00 | 0.00 | 88 | 917.0 |
| 20260504045929 | 64 | 98 | 11.3 | 15.6 | 0.00 | 0.00 | 0.00 | 86 | 916.7 |
| 20260504045727 | 65 | 67 | 0.9 | 13.0 | 0.00 | 0.00 | 0.00 | 87 | 916.9 |
| 20260504045329 | 65 | 83 | 9.6 | 14.8 | 0.00 | 0.00 | 0.00 | 88 | 916.9 |
| 20260504045227 | 65 | 67 | 9.6 | 14.8 | 0.00 | 0.00 | 0.00 | 87 | 916.9 |
| 20260504044729 | 65 | 71 | 8.7 | 13.9 | 0.00 | 0.00 | 0.00 | 87 | 917.0 |
| 20260504044727 | 65 | 76 | 8.7 | 13.9 | 0.00 | 0.00 | 0.00 | 87 | 917.0 |
| 20260504044227 | 65 | 73 | 8.7 | 14.8 | 0.00 | 0.00 | 0.00 | 88 | 917.0 |
| 20260504044128 | 65 | 66 | 8.7 | 14.8 | 0.00 | 0.00 | 0.00 | 89 | 917.1 |
| 20260504043727 | 65 | 86 | 10.4 | 14.8 | 0.00 | 0.00 | 0.00 | 88 | 916.8 |
| 20260504043528 | 65 | 78 | 9.6 | 14.8 | 0.00 | 0.00 | 0.00 | 88 | 916.9 |
| 20260504043227 | 65 | 70 | 0.0 | 8.7 | 0.00 | 0.00 | 0.00 | 88 | 916.9 |
| 20260504042928 | 65 | 84 | 9.6 | 13.0 | 0.00 | 0.00 | 0.00 | 87 | 916.9 |
| 20260504042727 | 65 | 60 | 9.6 | 13.0 | 0.00 | 0.00 | 0.00 | 88 | 916.9 |
| 20260504042328 | 64 | 77 | 8.7 | 13.0 | 0.00 | 0.00 | 0.00 | 88 | 916.8 |
| 20260504042229 | 64 | 64 | 9.6 | 13.0 | 0.00 | 0.00 | 0.00 | 89 | 916.9 |
| 20260504040727 | 63 | 72 | 8.7 | 11.3 | 0.00 | 0.00 | 0.00 | 90 | 917.1 |
| 20260504040528 | 63 | 78 | 8.7 | 11.3 | 0.00 | 0.00 | 0.00 | 90 | 917.1 |
| 20260504040227 | 63 | 49 | 7.8 | 11.3 | 0.00 | 0.00 | 0.00 | 90 | 917.1 |
| 20260504035928 | 63 | 64 | 6.1 | 9.6 | 0.00 | 0.00 | 0.00 | 90 | 917.1 |
| 20260504035727 | 63 | 66 | 8.7 | 11.3 | 0.00 | 0.00 | 0.00 | 90 | 917.1 |
| 20260504035328 | 63 | 84 | 7.8 | 11.3 | 0.00 | 0.00 | 0.00 | 89 | 917.2 |
| 20260504035227 | 63 | 72 | 7.8 | 11.3 | 0.00 | 0.00 | 0.00 | 90 | 917.1 |
| 20260504034728 | 63 | 78 | 0.9 | 9.6 | 0.00 | 0.00 | 0.00 | 90 | 917.2 |
| 20260504034228 | 63 | 85 | 7.0 | 9.6 | 0.00 | 0.00 | 0.00 | 90 | 917.2 |
| 20260504034128 | 63 | 57 | 4.3 | 9.6 | 0.00 | 0.00 | 0.00 | 90 | 917.2 |
| 20260504033727 | 62 | 71 | 0.0 | 7.8 | 0.00 | 0.00 | 0.00 | 90 | 917.2 |
| 20260504031728 | 63 | 52 | 2.6 | 10.4 | 0.00 | 0.00 | 0.00 | 86 | 917.1 |
| 20260504031726 | 63 | 55 | 2.6 | 10.4 | 0.00 | 0.00 | 0.00 | 86 | 917.0 |
| 20260504031228 | 63 | 71 | 0.0 | 8.7 | 0.00 | 0.00 | 0.00 | 87 | 917.0 |
| 20260504031129 | 63 | 58 | 0.0 | 0.0 | 0.00 | 0.00 | 0.00 | 87 | 917.1 |
| 20260504030726 | 63 | 60 | 0.0 | 7.8 | 0.00 | 0.00 | 0.00 | 86 | 917.2 |
| 20260504030528 | 63 | 57 | 0.0 | 7.0 | 0.00 | 0.00 | 0.00 | 86 | 917.2 |
| 20260504030226 | 63 | 78 | 2.6 | 8.7 | 0.00 | 0.00 | 0.00 | 86 | 917.3 |
| 20260504025927 | 63 | 64 | 0.9 | 8.7 | 0.00 | 0.00 | 0.00 | 87 | 917.4 |
| 20260504025726 | 63 | 46 | 0.9 | 7.0 | 0.00 | 0.00 | 0.00 | 86 | 917.4 |
| 20260504025226 | 63 | 67 | 0.0 | 7.0 | 0.00 | 0.00 | 0.00 | 86 | 917.4 |
| 20260504024728 | 63 | 73 | 0.9 | 8.7 | 0.00 | 0.00 | 0.00 | 86 | 917.4 |
| 20260504024726 | 63 | 62 | 0.9 | 8.7 | 0.00 | 0.00 | 0.00 | 86 | 917.4 |
| 20260504024226 | 63 | 70 | 0.0 | 0.0 | 0.00 | 0.00 | 0.00 | 85 | 917.4 |
| 20260504024127 | 63 | 91 | 0.0 | 9.6 | 0.00 | 0.00 | 0.00 | 85 | 917.4 |
| 20260504022226 | 64 | 66 | 0.9 | 7.8 | 0.00 | 0.00 | 0.00 | 85 | 917.3 |
| 20260504021728 | 65 | 64 | 7.0 | 7.8 | 0.00 | 0.00 | 0.00 | 85 | 917.2 |
| 20260504021726 | 65 | 38 | 7.0 | 7.8 | 0.00 | 0.00 | 0.00 | 85 | 917.2 |
| 20260504020727 | 64 | 45 | 1.7 | 9.6 | 0.00 | 0.00 | 0.00 | 84 | 917.1 |
| 20260504015927 | 64 | 21 | 1.7 | 8.7 | 0.00 | 0.00 | 0.00 | 85 | 917.1 |
| 20260504015726 | 64 | 34 | 4.3 | 9.6 | 0.00 | 0.00 | 0.00 | 84 | 917.0 |
| 20260504015327 | 64 | 27 | 8.7 | 12.2 | 0.00 | 0.00 | 0.00 | 84 | 916.8 |
| 20260504015226 | 64 | 57 | 8.7 | 12.2 | 0.00 | 0.00 | 0.00 | 84 | 916.8 |